QFA191 UMMS-YBHM

Flight info

Callsign QFA191
Flight time N/A
Altitude 29000
Route SORFO2G SORFO L979 ASKIL L736 LODKU M56 RORNA/K0911F310 M56 LUTUL L993 TUSEP N126 RULAD/K0919S0950 A460 XKC/K0909S1010 L888 SADAN Y1 OMBON W245 OVRAL B330 DAGDI W234 NIXID B330 QP/K0919S1070 B330 AVPAM A599 POU B330 TAMOT/N0498F350 B330 BIGEX A583 AKOTA W3 IOO W7 LUMVI B473 SAMGE/N0493F370 B473 CS Y177 AKROM Z17 OVRON
Aircraft B77W/H-SDE1E2E3FGHIJ2J3J4J5M1RWXY/LB1D1

Departure

Time N/A
Airport Minsk National Airport (UMMS)

Arrival

Time 2026-05-08 06:08
Airport Hamilton Island Airport (YBHM)
Time Latitude Longitude Altitude Speed Heading
2026-05-08 02:12 2.55457 129.17948 35874 ft 494 kts 143°
2026-05-08 02:13 2.49935 129.22097 35870 ft 495 kts 143°
2026-05-08 02:13 2.44436 129.26227 35870 ft 495 kts 143°
2026-05-08 02:14 2.38945 129.30352 35870 ft 496 kts 143°
2026-05-08 02:14 2.33402 129.34515 35870 ft 496 kts 143°
2026-05-08 02:15 2.27902 129.38646 35869 ft 496 kts 143°
2026-05-08 02:15 2.22374 129.42797 35867 ft 496 kts 143°
2026-05-08 02:16 2.16878 129.46924 35868 ft 496 kts 143°
2026-05-08 02:16 2.11339 129.51082 35866 ft 496 kts 143°
2026-05-08 02:17 2.05838 129.55212 35865 ft 496 kts 143°
2026-05-08 02:17 2.00315 129.59359 35865 ft 495 kts 143°
2026-05-08 02:18 1.94843 129.63478 35866 ft 495 kts 143°
2026-05-08 02:18 1.89436 129.67765 35866 ft 495 kts 141°
2026-05-08 02:19 1.84095 129.72097 35866 ft 495 kts 141°
2026-05-08 02:19 1.78726 129.76435 35865 ft 495 kts 141°
2026-05-08 02:20 1.73523 129.80614 35866 ft 495 kts 141°
2026-05-08 02:20 1.68136 129.84929 35865 ft 495 kts 141°
2026-05-08 02:21 1.62778 129.89221 35868 ft 495 kts 142°
2026-05-08 02:21 1.57389 129.93538 35865 ft 495 kts 142°
2026-05-08 02:22 1.52023 129.97837 35865 ft 495 kts 141°
2026-05-08 02:22 1.46665 130.02130 35867 ft 495 kts 141°
2026-05-08 02:23 1.41282 130.06442 35865 ft 495 kts 141°
2026-05-08 02:23 1.35915 130.10742 35866 ft 495 kts 141°
2026-05-08 02:24 1.30513 130.15069 35865 ft 495 kts 141°
2026-05-08 02:24 1.25149 130.19366 35867 ft 495 kts 141°
2026-05-08 02:25 1.19792 130.23656 35863 ft 495 kts 141°
2026-05-08 02:25 1.14422 130.27957 35863 ft 495 kts 141°
2026-05-08 02:26 1.09055 130.32255 35864 ft 495 kts 141°
2026-05-08 02:26 1.03667 130.36571 35864 ft 495 kts 141°
2026-05-08 02:27 0.98290 130.40876 35862 ft 495 kts 141°
2026-05-08 02:27 0.92927 130.45171 35860 ft 495 kts 141°
2026-05-08 02:28 0.87562 130.49467 35860 ft 495 kts 141°
2026-05-08 02:28 0.82189 130.53769 35858 ft 495 kts 141°
2026-05-08 02:29 0.76819 130.58068 35856 ft 495 kts 141°
2026-05-08 02:29 0.71428 130.62384 35857 ft 495 kts 141°
2026-05-08 02:30 0.66059 130.66683 35859 ft 495 kts 141°
2026-05-08 02:30 0.60714 130.70962 35857 ft 494 kts 141°
2026-05-08 02:31 0.55354 130.75254 35857 ft 494 kts 141°
2026-05-08 02:31 0.49976 130.79558 35856 ft 494 kts 141°
2026-05-08 02:32 0.44629 130.83839 35853 ft 494 kts 141°
2026-05-08 02:32 0.39280 130.88121 35854 ft 494 kts 141°
2026-05-08 02:33 0.34806 130.91702 35852 ft 494 kts 141°
2026-05-08 02:33 0.29451 130.95989 35849 ft 494 kts 141°
2026-05-08 02:34 0.24053 131.00310 35851 ft 494 kts 141°
2026-05-08 02:34 0.18726 131.04574 35854 ft 494 kts 141°
2026-05-08 02:35 0.13326 131.08897 35853 ft 495 kts 141°
2026-05-08 02:35 0.07940 131.13208 35860 ft 495 kts 141°
2026-05-08 02:36 0.02569 131.17508 35859 ft 496 kts 141°
2026-05-08 02:36 -0.02794 131.21800 35858 ft 496 kts 141°
2026-05-08 02:37 -0.08206 131.26133 35855 ft 497 kts 141°
2026-05-08 02:37 -0.13601 131.30451 35855 ft 497 kts 141°
2026-05-08 02:38 -0.18987 131.34762 35858 ft 497 kts 141°
2026-05-08 02:38 -0.24362 131.39064 35850 ft 497 kts 141°
2026-05-08 02:39 -0.29777 131.43400 35849 ft 497 kts 141°
2026-05-08 02:39 -0.35173 131.47719 35850 ft 497 kts 141°
2026-05-08 02:40 -0.40551 131.52024 35850 ft 496 kts 141°
2026-05-08 02:40 -0.45929 131.56329 35847 ft 496 kts 141°
2026-05-08 02:41 -0.51311 131.60637 35847 ft 496 kts 141°
2026-05-08 02:41 -0.56718 131.64966 35845 ft 497 kts 141°
2026-05-08 02:42 -0.62090 131.69267 35848 ft 497 kts 141°
2026-05-08 02:42 -0.67482 131.73584 35849 ft 497 kts 141°
2026-05-08 02:43 -0.72868 131.77896 35850 ft 497 kts 141°
2026-05-08 02:43 -0.78283 131.82232 35852 ft 497 kts 141°
2026-05-08 02:44 -0.83656 131.86533 35860 ft 497 kts 141°
2026-05-08 02:44 -0.89037 131.90841 35857 ft 497 kts 141°
2026-05-08 02:45 -0.94456 131.95181 35856 ft 497 kts 140°
2026-05-08 02:45 -0.99829 131.99484 35865 ft 496 kts 140°
2026-05-08 02:46 -1.05200 132.03785 35862 ft 496 kts 141°
2026-05-08 02:46 -1.10573 132.08088 35862 ft 496 kts 141°
2026-05-08 02:47 -1.15956 132.12399 35860 ft 496 kts 141°
2026-05-08 02:47 -1.21328 132.16703 35855 ft 496 kts 140°
2026-05-08 02:48 -1.26737 132.21034 35863 ft 496 kts 140°
2026-05-08 02:48 -1.32119 132.25345 35860 ft 496 kts 141°
2026-05-08 02:49 -1.37498 132.29654 35858 ft 496 kts 141°
2026-05-08 02:49 -1.42848 132.33940 35856 ft 496 kts 140°
2026-05-08 02:50 -1.48251 132.38269 35857 ft 496 kts 141°
2026-05-08 02:50 -1.53614 132.42565 35855 ft 496 kts 141°
2026-05-08 02:51 -1.58978 132.46863 35852 ft 496 kts 140°
2026-05-08 02:51 -1.64363 132.51178 35850 ft 496 kts 141°
2026-05-08 02:52 -1.69742 132.55489 35853 ft 497 kts 140°
2026-05-08 02:52 -1.75160 132.59831 35847 ft 497 kts 141°
2026-05-08 02:53 -1.80550 132.64150 35850 ft 498 kts 140°
2026-05-08 02:53 -1.85936 132.68466 35841 ft 498 kts 140°
2026-05-08 02:54 -1.91361 132.72817 35849 ft 498 kts 141°
2026-05-08 02:54 -1.96740 132.77130 35843 ft 498 kts 141°
2026-05-08 02:55 -2.04851 132.83632 35843 ft 498 kts 141°
2026-05-08 02:56 -2.10280 132.87985 35849 ft 498 kts 141°
2026-05-08 02:56 -2.15677 132.92313 35842 ft 498 kts 141°
2026-05-08 02:57 -2.20986 132.96571 35840 ft 498 kts 141°
2026-05-08 02:57 -2.26399 133.00914 35840 ft 498 kts 141°
2026-05-08 02:58 -2.31790 133.05238 35841 ft 498 kts 141°
2026-05-08 02:58 -2.37175 133.09558 35839 ft 498 kts 141°
2026-05-08 02:59 -2.42569 133.13886 35838 ft 498 kts 141°
2026-05-08 02:59 -2.47976 133.18224 35824 ft 499 kts 141°
2026-05-08 03:00 -2.53404 133.22580 35840 ft 498 kts 141°
2026-05-08 03:00 -2.58804 133.26914 35837 ft 499 kts 141°
2026-05-08 03:01 -2.64219 133.31261 35833 ft 499 kts 141°
2026-05-08 03:01 -2.69620 133.35597 35833 ft 499 kts 141°
2026-05-08 03:02 -2.75039 133.39948 35828 ft 500 kts 141°
2026-05-08 03:02 -2.80485 133.44320 35832 ft 500 kts 141°
2026-05-08 03:03 -2.85898 133.48668 35832 ft 501 kts 141°
2026-05-08 03:03 -2.91330 133.53032 35830 ft 501 kts 141°
2026-05-08 03:04 -2.96751 133.57388 35833 ft 501 kts 141°
2026-05-08 03:04 -3.02237 133.61758 35833 ft 502 kts 142°
2026-05-08 03:05 -3.07799 133.65957 35837 ft 502 kts 143°
2026-05-08 03:05 -3.13383 133.70112 35839 ft 502 kts 143°
2026-05-08 03:06 -3.18990 133.74311 35843 ft 502 kts 143°
2026-05-08 03:06 -3.24580 133.78523 35842 ft 502 kts 143°
2026-05-08 03:07 -3.30150 133.82728 35851 ft 502 kts 143°
2026-05-08 03:07 -3.35760 133.86963 35852 ft 503 kts 143°
2026-05-08 03:08 -3.41356 133.91186 35851 ft 503 kts 143°
2026-05-08 03:08 -3.46924 133.95387 35857 ft 503 kts 143°
2026-05-08 03:09 -3.52499 133.99596 35855 ft 503 kts 143°
2026-05-08 03:09 -3.58102 134.03827 35854 ft 503 kts 143°
2026-05-08 03:10 -3.63708 134.08060 35856 ft 503 kts 143°
2026-05-08 03:10 -3.69278 134.12266 35859 ft 503 kts 143°
2026-05-08 03:11 -3.74888 134.16502 35854 ft 503 kts 143°
2026-05-08 03:11 -3.80468 134.20719 35854 ft 503 kts 143°
2026-05-08 03:12 -3.86037 134.24926 35851 ft 503 kts 143°
2026-05-08 03:12 -3.91643 134.29162 35853 ft 503 kts 143°
2026-05-08 03:13 -3.97229 134.33384 35851 ft 503 kts 143°
2026-05-08 03:13 -4.02816 134.37608 35849 ft 503 kts 143°
2026-05-08 03:14 -4.08399 134.41829 35845 ft 502 kts 143°
2026-05-08 03:14 -4.13973 134.46044 35842 ft 502 kts 143°
2026-05-08 03:15 -4.19544 134.50258 35839 ft 502 kts 143°
2026-05-08 03:15 -4.25086 134.54450 35838 ft 502 kts 143°
2026-05-08 03:16 -4.30666 134.58673 35835 ft 503 kts 143°
2026-05-08 03:16 -4.36249 134.62897 35841 ft 503 kts 143°
2026-05-08 03:17 -4.41837 134.67127 35836 ft 503 kts 143°
2026-05-08 03:17 -4.47419 134.71353 35841 ft 502 kts 143°
2026-05-08 03:18 -4.52054 134.74863 35840 ft 503 kts 143°
2026-05-08 03:18 -4.57640 134.79093 35841 ft 503 kts 143°
2026-05-08 03:19 -4.63231 134.83328 35842 ft 503 kts 143°
2026-05-08 03:19 -4.68821 134.87563 35844 ft 503 kts 143°
2026-05-08 03:20 -4.74377 134.91773 35845 ft 504 kts 143°
2026-05-08 03:20 -4.79971 134.96013 35839 ft 504 kts 143°
2026-05-08 03:21 -4.85572 135.00260 35844 ft 504 kts 143°
2026-05-08 03:21 -4.91176 135.04509 35848 ft 505 kts 143°
2026-05-08 03:22 -4.96783 135.08763 35848 ft 505 kts 143°
2026-05-08 03:22 -5.02352 135.12986 35846 ft 505 kts 143°
2026-05-08 03:23 -5.07966 135.17246 35847 ft 506 kts 143°
2026-05-08 03:23 -5.13570 135.21499 35846 ft 507 kts 143°
2026-05-08 03:24 -5.19208 135.25779 35849 ft 508 kts 143°
2026-05-08 03:24 -5.24848 135.30061 35851 ft 509 kts 143°
2026-05-08 03:25 -5.30507 135.34359 35850 ft 510 kts 143°
2026-05-08 03:25 -5.36162 135.38655 35849 ft 510 kts 143°
2026-05-08 03:26 -5.41767 135.42913 35843 ft 505 kts 143°
2026-05-08 03:26 -5.47341 135.47150 35847 ft 501 kts 143°
2026-05-08 03:27 -5.52864 135.51349 35840 ft 495 kts 143°
2026-05-08 03:27 -5.58395 135.55554 35852 ft 498 kts 143°
2026-05-08 03:28 -5.63901 135.59742 35851 ft 496 kts 143°
2026-05-08 03:28 -5.69407 135.63931 35846 ft 496 kts 143°
2026-05-08 03:29 -5.74889 135.68102 35844 ft 497 kts 143°
2026-05-08 03:29 -5.80407 135.72301 35847 ft 496 kts 143°
2026-05-08 03:30 -5.88672 135.78594 35846 ft 496 kts 143°
2026-05-08 03:31 -5.99691 135.86988 35859 ft 500 kts 143°
2026-05-08 03:32 -6.08075 135.93376 35857 ft 508 kts 143°
2026-05-08 03:32 -6.13739 135.97694 35858 ft 514 kts 143°
2026-05-08 03:33 -6.19415 136.02022 35843 ft 512 kts 143°
2026-05-08 03:33 -6.25085 136.06347 35855 ft 513 kts 143°
2026-05-08 03:34 -6.28952 136.09297 35858 ft 517 kts 143°
2026-05-08 03:34 -6.34662 136.13654 35852 ft 511 kts 143°
2026-05-08 03:35 -6.40272 136.17936 35853 ft 507 kts 143°
2026-05-08 03:35 -6.45897 136.22231 35858 ft 509 kts 143°
2026-05-08 03:36 -6.51579 136.26571 35863 ft 514 kts 143°
2026-05-08 03:36 -6.57287 136.30931 35833 ft 513 kts 143°
2026-05-08 03:37 -6.62950 136.35258 35856 ft 515 kts 143°
2026-05-08 03:37 -6.68649 136.39615 35856 ft 514 kts 143°
2026-05-08 03:38 -6.74355 136.43979 35858 ft 517 kts 143°
2026-05-08 03:38 -6.80065 136.48345 35853 ft 513 kts 143°
2026-05-08 03:39 -6.85771 136.52711 35862 ft 518 kts 143°
2026-05-08 03:39 -6.91505 136.57100 35839 ft 515 kts 143°
2026-05-08 03:40 -6.97223 136.61477 35860 ft 518 kts 143°
2026-05-08 03:40 -7.02917 136.65837 35841 ft 516 kts 143°
2026-05-08 03:41 -7.08635 136.70218 35862 ft 519 kts 143°
2026-05-08 03:41 -7.14380 136.74620 35836 ft 517 kts 143°
2026-05-08 03:42 -7.20135 136.79032 35855 ft 520 kts 143°
2026-05-08 03:42 -7.25849 136.83414 35862 ft 517 kts 143°
2026-05-08 03:43 -7.31593 136.87820 35841 ft 517 kts 143°
2026-05-08 03:43 -7.37312 136.92208 35862 ft 518 kts 143°
2026-05-08 03:44 -7.43050 136.96612 35845 ft 517 kts 143°
2026-05-08 03:44 -7.48754 137.00992 35860 ft 515 kts 143°
2026-05-08 03:45 -7.54474 137.05386 35865 ft 518 kts 143°
2026-05-08 03:45 -7.60169 137.09761 35843 ft 517 kts 143°
2026-05-08 03:46 -7.65894 137.14162 35843 ft 515 kts 143°
2026-05-08 03:46 -7.71609 137.18556 35843 ft 518 kts 143°
2026-05-08 03:47 -7.77319 137.22948 35864 ft 515 kts 143°
2026-05-08 03:47 -7.83039 137.27350 35845 ft 517 kts 143°
2026-05-08 03:48 -7.86889 137.30313 35848 ft 516 kts 143°
2026-05-08 03:48 -7.92537 137.34661 35840 ft 509 kts 143°
2026-05-08 03:49 -7.98156 137.38989 35853 ft 507 kts 143°
2026-05-08 03:49 -8.03749 137.43298 35848 ft 506 kts 142°
2026-05-08 03:50 -8.09338 137.47605 35866 ft 505 kts 143°
2026-05-08 03:50 -8.14946 137.51928 35868 ft 509 kts 143°
2026-05-08 03:51 -8.20611 137.56297 35853 ft 514 kts 143°
2026-05-08 03:51 -8.26306 137.60691 35851 ft 515 kts 142°
2026-05-08 03:52 -8.31981 137.65071 35850 ft 516 kts 143°
2026-05-08 03:52 -8.37673 137.69467 35856 ft 515 kts 142°
2026-05-08 03:53 -8.43365 137.73864 35858 ft 514 kts 143°
2026-05-08 03:53 -8.49041 137.78249 35859 ft 514 kts 142°
2026-05-08 03:54 -8.54721 137.82640 35856 ft 513 kts 142°
2026-05-08 03:54 -8.60394 137.87027 35860 ft 513 kts 142°
2026-05-08 03:55 -8.66023 137.91382 35857 ft 513 kts 142°
2026-05-08 03:56 -8.76772 137.99704 35855 ft 513 kts 142°
2026-05-08 03:56 -8.82407 138.04069 35855 ft 513 kts 142°
2026-05-08 03:57 -8.87909 138.08657 35858 ft 513 kts 136°
2026-05-08 03:57 -8.92999 138.13715 35865 ft 513 kts 135°
2026-05-08 03:58 -8.98057 138.18819 35856 ft 513 kts 135°
2026-05-08 03:58 -9.03132 138.23897 35862 ft 513 kts 135°
2026-05-08 03:59 -9.08225 138.28962 35856 ft 513 kts 135°
2026-05-08 03:59 -9.13323 138.34023 35858 ft 514 kts 135°
2026-05-08 04:00 -9.18397 138.39064 35859 ft 515 kts 135°
2026-05-08 04:00 -9.23505 138.44144 35859 ft 515 kts 135°
2026-05-08 04:01 -9.28625 138.49239 35860 ft 516 kts 135°
2026-05-08 04:01 -9.33739 138.54331 35856 ft 516 kts 135°
2026-05-08 04:02 -9.38868 138.59439 35860 ft 516 kts 135°
2026-05-08 04:02 -9.43988 138.64540 35855 ft 516 kts 135°
2026-05-08 04:03 -9.49105 138.69641 35860 ft 516 kts 135°
2026-05-08 04:03 -9.56798 138.77314 35855 ft 517 kts 135°
2026-05-08 04:04 -9.61927 138.82433 35855 ft 517 kts 135°
2026-05-08 04:04 -9.67050 138.87547 35853 ft 516 kts 135°
2026-05-08 04:05 -9.72132 138.92623 35857 ft 516 kts 135°
2026-05-08 04:05 -9.77251 138.97738 35860 ft 516 kts 135°
2026-05-08 04:06 -9.82366 139.02852 35856 ft 516 kts 135°
2026-05-08 04:06 -9.87480 139.07967 35857 ft 516 kts 135°
2026-05-08 04:07 -9.92586 139.13076 35857 ft 516 kts 135°
2026-05-08 04:07 -9.97700 139.18196 35854 ft 516 kts 135°
2026-05-08 04:08 -10.02780 139.23284 35855 ft 516 kts 135°
2026-05-08 04:08 -10.07897 139.28412 35858 ft 517 kts 135°
2026-05-08 04:09 -10.13014 139.33542 35860 ft 517 kts 135°
2026-05-08 04:09 -10.18128 139.38672 35861 ft 517 kts 135°
2026-05-08 04:10 -10.23250 139.43812 35863 ft 518 kts 135°
2026-05-08 04:10 -10.25817 139.46388 35724 ft 520 kts 135°
2026-05-08 04:10 -10.28375 139.48957 35939 ft 518 kts 135°
2026-05-08 04:11 -10.33526 139.54132 35862 ft 520 kts 135°
2026-05-08 04:11 -10.38664 139.59295 35857 ft 519 kts 135°
2026-05-08 04:12 -10.43798 139.64456 35858 ft 518 kts 135°
2026-05-08 04:12 -10.48920 139.69608 35859 ft 518 kts 135°
2026-05-08 04:13 -10.54036 139.74758 35863 ft 518 kts 135°
2026-05-08 04:13 -10.59119 139.79876 35867 ft 518 kts 135°
2026-05-08 04:14 -10.64246 139.85041 35867 ft 519 kts 135°
2026-05-08 04:14 -10.69385 139.90221 35868 ft 520 kts 135°
2026-05-08 04:15 -10.74492 139.95371 35868 ft 520 kts 135°
2026-05-08 04:15 -10.79632 140.00558 35867 ft 521 kts 135°
2026-05-08 04:16 -10.84777 140.05753 35867 ft 521 kts 135°
2026-05-08 04:16 -10.89936 140.10964 35866 ft 522 kts 135°
2026-05-08 04:17 -10.95092 140.16176 35865 ft 522 kts 135°
2026-05-08 04:17 -11.00254 140.21396 35865 ft 522 kts 136°
2026-05-08 04:18 -11.05378 140.26585 35865 ft 523 kts 136°
2026-05-08 04:18 -11.10530 140.31806 35866 ft 523 kts 135°
2026-05-08 04:19 -11.15682 140.37031 35871 ft 523 kts 136°
2026-05-08 04:19 -11.20846 140.42271 35868 ft 523 kts 136°
2026-05-08 04:20 -11.25996 140.47498 35869 ft 523 kts 136°
2026-05-08 04:20 -11.31151 140.52734 35867 ft 523 kts 136°
2026-05-08 04:21 -11.36288 140.57955 35869 ft 524 kts 136°
2026-05-08 04:21 -11.41449 140.63202 35870 ft 524 kts 136°
2026-05-08 04:22 -11.46612 140.68455 35865 ft 524 kts 136°
2026-05-08 04:22 -11.51777 140.73712 35867 ft 525 kts 136°
2026-05-08 04:23 -11.56948 140.78979 35866 ft 525 kts 136°
2026-05-08 04:23 -11.62118 140.84247 35866 ft 525 kts 136°
2026-05-08 04:24 -11.67293 140.89523 35868 ft 526 kts 136°
2026-05-08 04:24 -11.72431 140.94765 35865 ft 526 kts 136°
2026-05-08 04:25 -11.77592 141.00034 35867 ft 526 kts 136°
2026-05-08 04:25 -11.82787 141.05339 35865 ft 526 kts 136°
2026-05-08 04:26 -11.87961 141.10627 35859 ft 527 kts 136°
2026-05-08 04:26 -11.93152 141.15934 35860 ft 527 kts 136°
2026-05-08 04:27 -11.98335 141.21237 35861 ft 527 kts 136°
2026-05-08 04:27 -12.03489 141.26513 35861 ft 527 kts 136°
2026-05-08 04:28 -12.08668 141.31818 35857 ft 527 kts 136°
2026-05-08 04:28 -12.13850 141.37128 35857 ft 527 kts 136°
2026-05-08 04:29 -12.19027 141.42437 35853 ft 527 kts 136°
2026-05-08 04:29 -12.24193 141.47738 35852 ft 526 kts 136°
2026-05-08 04:30 -12.29368 141.53051 35849 ft 526 kts 136°
2026-05-08 04:30 -12.34532 141.58356 35848 ft 526 kts 136°
2026-05-08 04:31 -12.39701 141.63669 35845 ft 527 kts 136°
2026-05-08 04:31 -12.43999 141.68089 35852 ft 527 kts 136°
2026-05-08 04:32 -12.49175 141.73415 35846 ft 528 kts 136°
2026-05-08 04:32 -12.54360 141.78755 35846 ft 528 kts 136°
2026-05-08 04:33 -12.59549 141.84102 35851 ft 529 kts 136°
2026-05-08 04:33 -12.64729 141.89443 35847 ft 529 kts 136°
2026-05-08 04:34 -12.70005 141.94630 35850 ft 528 kts 140°
2026-05-08 04:34 -12.75554 141.99566 35857 ft 529 kts 141°
2026-05-08 04:35 -12.81132 142.04478 35853 ft 529 kts 140°
2026-05-08 04:35 -12.86706 142.09437 35855 ft 530 kts 140°
2026-05-08 04:36 -12.92261 142.14410 35854 ft 530 kts 140°
2026-05-08 04:36 -12.97789 142.19366 35854 ft 530 kts 140°
2026-05-08 04:37 -13.03377 142.24374 35859 ft 530 kts 140°
2026-05-08 04:37 -13.08939 142.29359 35866 ft 531 kts 140°
2026-05-08 04:38 -13.14462 142.34315 35865 ft 531 kts 140°
2026-05-08 04:38 -13.20032 142.39314 35870 ft 532 kts 140°
2026-05-08 04:39 -13.25602 142.44318 35873 ft 532 kts 140°
2026-05-08 04:39 -13.31189 142.49341 35872 ft 533 kts 140°
2026-05-08 04:40 -13.36765 142.54355 35887 ft 533 kts 140°
2026-05-08 04:40 -13.42253 142.59283 35877 ft 534 kts 140°
2026-05-08 04:41 -13.47842 142.64302 35885 ft 534 kts 140°
2026-05-08 04:41 -13.53430 142.69326 35885 ft 535 kts 140°
2026-05-08 04:42 -13.59036 142.74371 35890 ft 535 kts 140°
2026-05-08 04:42 -13.64645 142.79422 35890 ft 536 kts 140°
2026-05-08 04:43 -13.70221 142.84446 35895 ft 536 kts 140°
2026-05-08 04:43 -13.75829 142.89504 35895 ft 536 kts 140°
2026-05-08 04:44 -13.81440 142.94566 35900 ft 536 kts 140°
2026-05-08 04:44 -13.87054 142.99635 35897 ft 537 kts 141°
2026-05-08 04:45 -13.92668 143.04708 35902 ft 537 kts 140°
2026-05-08 04:45 -13.98292 143.09792 35908 ft 537 kts 141°
2026-05-08 04:46 -14.03909 143.14874 35908 ft 538 kts 141°
2026-05-08 04:46 -14.09528 143.19960 35909 ft 538 kts 141°
2026-05-08 04:47 -14.15153 143.25056 35910 ft 538 kts 141°
2026-05-08 04:47 -14.20742 143.30124 35906 ft 539 kts 141°
2026-05-08 04:48 -14.26375 143.35233 35910 ft 539 kts 141°
2026-05-08 04:48 -14.32012 143.40352 35903 ft 539 kts 141°
2026-05-08 04:49 -14.37643 143.45467 35918 ft 539 kts 141°
2026-05-08 04:49 -14.43281 143.50592 35908 ft 540 kts 141°
2026-05-08 04:50 -14.47294 143.54243 35909 ft 541 kts 141°
2026-05-08 04:50 -14.52935 143.59377 35906 ft 541 kts 141°
2026-05-08 04:51 -14.58583 143.64522 35906 ft 542 kts 141°
2026-05-08 04:51 -14.64205 143.69646 35904 ft 542 kts 141°
2026-05-08 04:52 -14.69856 143.74801 35906 ft 542 kts 141°
2026-05-08 04:52 -14.75513 143.79965 35904 ft 542 kts 141°
2026-05-08 04:53 -14.81167 143.85131 35905 ft 543 kts 141°
2026-05-08 04:53 -14.86824 143.90302 35904 ft 543 kts 141°
2026-05-08 04:54 -14.92488 143.95485 35914 ft 543 kts 141°
2026-05-08 04:54 -14.98153 144.00671 35907 ft 544 kts 141°
2026-05-08 04:55 -15.03786 144.05836 35916 ft 544 kts 141°
2026-05-08 04:55 -15.09450 144.11039 35898 ft 544 kts 141°
2026-05-08 04:56 -15.15104 144.16237 35906 ft 539 kts 140°
2026-05-08 04:56 -15.20636 144.21330 35909 ft 534 kts 140°
2026-05-08 04:57 -15.26196 144.26447 35916 ft 535 kts 140°
2026-05-08 04:57 -15.29745 144.29716 35916 ft 536 kts 140°
2026-05-08 04:58 -15.35320 144.34853 35923 ft 537 kts 140°
2026-05-08 04:58 -15.40902 144.40003 35924 ft 538 kts 140°
2026-05-08 04:59 -15.46493 144.45165 35929 ft 538 kts 140°
2026-05-08 04:59 -15.52090 144.50336 35931 ft 539 kts 140°
2026-05-08 05:00 -15.57687 144.55511 35934 ft 538 kts 140°
2026-05-08 05:00 -15.63284 144.60690 35938 ft 538 kts 141°
2026-05-08 05:01 -15.68869 144.65861 35944 ft 538 kts 141°
2026-05-08 05:01 -15.74460 144.71042 35949 ft 538 kts 141°
2026-05-08 05:02 -15.80005 144.76185 35949 ft 538 kts 141°
2026-05-08 05:02 -15.85601 144.81379 35958 ft 539 kts 141°
2026-05-08 05:03 -15.91194 144.86574 35961 ft 539 kts 141°
2026-05-08 05:03 -15.96779 144.91765 35964 ft 539 kts 141°
2026-05-08 05:04 -16.02372 144.96969 35970 ft 540 kts 141°
2026-05-08 05:04 -16.07966 145.02178 35980 ft 539 kts 141°
2026-05-08 05:05 -16.13532 145.07365 35986 ft 540 kts 141°
2026-05-08 05:05 -16.19117 145.12574 35984 ft 540 kts 141°
2026-05-08 05:06 -16.24637 145.17726 35996 ft 540 kts 141°
2026-05-08 05:06 -16.30225 145.22947 35984 ft 540 kts 140°
2026-05-08 05:07 -16.35813 145.28175 36000 ft 539 kts 140°
2026-05-08 05:07 -16.41392 145.33402 35986 ft 539 kts 141°
2026-05-08 05:08 -16.46972 145.38633 36000 ft 540 kts 141°
2026-05-08 05:08 -16.52572 145.43888 35989 ft 542 kts 140°
2026-05-08 05:09 -16.58138 145.49113 36000 ft 542 kts 141°
2026-05-08 05:09 -16.63739 145.54378 36008 ft 543 kts 141°
2026-05-08 05:10 -16.72176 145.62313 35982 ft 544 kts 141°
2026-05-08 05:11 -16.77802 145.67613 35978 ft 543 kts 141°
2026-05-08 05:11 -16.83316 145.72805 35971 ft 543 kts 141°
2026-05-08 05:12 -16.89391 145.77619 35971 ft 539 kts 150°
2026-05-08 05:12 -16.95642 145.81898 35968 ft 539 kts 151°
2026-05-08 05:13 -17.01920 145.86184 35987 ft 540 kts 150°
2026-05-08 05:13 -17.08186 145.90522 35993 ft 540 kts 150°
2026-05-08 05:14 -17.14425 145.94877 36009 ft 541 kts 150°
2026-05-08 05:14 -17.20682 145.99252 36005 ft 541 kts 150°
2026-05-08 05:15 -17.26887 146.03591 36016 ft 541 kts 150°
2026-05-08 05:15 -17.33148 146.07968 36007 ft 542 kts 150°
2026-05-08 05:16 -17.39406 146.12347 36019 ft 542 kts 150°
2026-05-08 05:16 -17.44649 146.16019 36019 ft 542 kts 150°
2026-05-08 05:17 -17.50924 146.20417 36023 ft 543 kts 150°
2026-05-08 05:17 -17.57145 146.24781 36013 ft 543 kts 150°
2026-05-08 05:18 -17.63455 146.29210 36013 ft 544 kts 150°
2026-05-08 05:18 -17.69745 146.33631 36016 ft 544 kts 150°
2026-05-08 05:19 -17.76001 146.38030 36013 ft 545 kts 150°
2026-05-08 05:19 -17.82310 146.42471 36018 ft 545 kts 150°
2026-05-08 05:20 -17.88614 146.46912 36018 ft 546 kts 150°
2026-05-08 05:20 -17.94914 146.51355 36017 ft 546 kts 150°
2026-05-08 05:21 -18.01225 146.55809 36017 ft 546 kts 150°
2026-05-08 05:21 -18.07546 146.60273 36017 ft 547 kts 150°
2026-05-08 05:22 -18.13851 146.64731 36019 ft 547 kts 150°
2026-05-08 05:22 -18.20133 146.69177 36019 ft 547 kts 150°
2026-05-08 05:23 -18.26464 146.73662 36023 ft 548 kts 150°
2026-05-08 05:23 -18.32792 146.78155 36023 ft 549 kts 149°
2026-05-08 05:24 -18.38710 146.83293 36020 ft 555 kts 138°
2026-05-08 05:24 -18.44128 146.89098 36028 ft 556 kts 137°
2026-05-08 05:25 -18.49523 146.94950 36023 ft 557 kts 137°
2026-05-08 05:25 -18.54947 147.00766 36027 ft 557 kts 138°
2026-05-08 05:26 -18.60452 147.06621 36037 ft 566 kts 138°
2026-05-08 05:26 -18.66008 147.12527 36033 ft 568 kts 138°
2026-05-08 05:27 -18.71572 147.18458 36026 ft 568 kts 138°
2026-05-08 05:27 -18.77124 147.24386 36028 ft 567 kts 138°
2026-05-08 05:28 -18.82631 147.30272 36026 ft 567 kts 138°
2026-05-08 05:28 -18.88196 147.36224 36026 ft 566 kts 138°
2026-05-08 05:29 -18.93727 147.42146 36032 ft 565 kts 138°
2026-05-08 05:29 -18.99249 147.48063 36031 ft 565 kts 138°
2026-05-08 05:30 -19.04730 147.53943 36035 ft 565 kts 138°
2026-05-08 05:30 -19.10251 147.59870 36034 ft 566 kts 138°
2026-05-08 05:31 -19.15793 147.65827 35584 ft 572 kts 138°
2026-05-08 05:31 -19.18583 147.68827 35050 ft 571 kts 138°
2026-05-08 05:31 -19.21364 147.71822 34532 ft 567 kts 138°
2026-05-08 05:31 -19.24119 147.74792 34030 ft 564 kts 138°
2026-05-08 05:32 -19.26866 147.77754 33448 ft 562 kts 138°
2026-05-08 05:32 -19.29599 147.80699 32883 ft 559 kts 138°
2026-05-08 05:32 -19.32330 147.83643 32313 ft 560 kts 138°
2026-05-08 05:32 -19.35063 147.86589 31793 ft 563 kts 137°
2026-05-08 05:33 -19.37814 147.89556 31257 ft 565 kts 137°
2026-05-08 05:33 -19.40567 147.92528 30727 ft 562 kts 137°
2026-05-08 05:33 -19.43287 147.95469 30204 ft 557 kts 137°
2026-05-08 05:33 -19.45992 147.98397 29611 ft 553 kts 137°
2026-05-08 05:34 -19.48675 148.01302 29031 ft 547 kts 136°
2026-05-08 05:34 -19.51293 148.04137 28426 ft 541 kts 136°
2026-05-08 05:34 -19.53901 148.06962 27843 ft 534 kts 136°
2026-05-08 05:34 -19.56476 148.09753 27278 ft 526 kts 136°
2026-05-08 05:35 -19.59025 148.12516 26705 ft 520 kts 136°
2026-05-08 05:35 -19.61543 148.15247 26159 ft 513 kts 136°
2026-05-08 05:35 -19.62445 148.16224 25962 ft 511 kts 136°
2026-05-08 05:35 -19.64917 148.18906 25432 ft 505 kts 136°
2026-05-08 05:36 -19.67351 148.21548 24904 ft 499 kts 136°
2026-05-08 05:36 -19.69770 148.24176 24395 ft 494 kts 136°
2026-05-08 05:36 -19.72168 148.26780 23881 ft 489 kts 136°
2026-05-08 05:36 -19.74531 148.29349 23341 ft 484 kts 136°
2026-05-08 05:37 -19.76876 148.31900 22745 ft 479 kts 136°
2026-05-08 05:37 -19.79194 148.34422 22152 ft 475 kts 136°
2026-05-08 05:37 -19.81490 148.36921 21594 ft 470 kts 136°
2026-05-08 05:37 -19.83760 148.39393 21036 ft 466 kts 136°
2026-05-08 05:38 -19.85989 148.41821 20491 ft 461 kts 136°
2026-05-08 05:38 -19.88221 148.44254 19952 ft 457 kts 136°
2026-05-08 05:38 -19.90427 148.46659 19427 ft 452 kts 136°
2026-05-08 05:38 -19.92614 148.49045 18906 ft 448 kts 136°
2026-05-08 05:39 -19.94783 148.51412 18393 ft 444 kts 136°
2026-05-08 05:39 -19.96925 148.53752 17806 ft 439 kts 136°
2026-05-08 05:39 -19.99029 148.56074 17230 ft 434 kts 133°
2026-05-08 05:39 -20.00841 148.58624 16657 ft 432 kts 122°
2026-05-08 05:40 -20.02193 148.61457 16090 ft 429 kts 111°
2026-05-08 05:40 -20.03051 148.64487 15549 ft 425 kts 101°
2026-05-08 05:40 -20.03382 148.67431 15038 ft 421 kts 90°
2026-05-08 05:40 -20.03293 148.70531 14513 ft 416 kts 84°
2026-05-08 05:41 -20.03035 148.73548 13999 ft 413 kts 83°
2026-05-08 05:41 -20.02732 148.76568 13437 ft 410 kts 82°
2026-05-08 05:41 -20.02419 148.79570 12865 ft 407 kts 82°
2026-05-08 05:41 -20.02105 148.82551 12302 ft 404 kts 82°
2026-05-08 05:42 -20.01792 148.85502 11745 ft 401 kts 82°
2026-05-08 05:42 -20.01479 148.88439 11204 ft 398 kts 82°
2026-05-08 05:42 -20.01168 148.91350 10664 ft 395 kts 82°
2026-05-08 05:42 -20.00860 148.94244 10138 ft 392 kts 82°
2026-05-08 05:43 -20.00555 148.97108 9579 ft 389 kts 82°
2026-05-08 05:43 -20.00186 148.99944 8990 ft 382 kts 76°
2026-05-08 05:43 -19.99336 149.02600 8422 ft 378 kts 63°
2026-05-08 05:43 -19.97948 149.04950 7863 ft 373 kts 50°
2026-05-08 05:44 -19.96103 149.06857 7316 ft 369 kts 36°
2026-05-08 05:44 -19.93897 149.08211 6775 ft 366 kts 22°
2026-05-08 05:44 -19.91454 149.08916 6227 ft 363 kts
2026-05-08 05:44 -19.88972 149.08905 5651 ft 361 kts 352°
2026-05-08 05:45 -19.86572 149.08163 5095 ft 361 kts 336°
2026-05-08 05:45 -19.84476 149.06723 4523 ft 360 kts 319°
2026-05-08 05:45 -19.82816 149.04794 4181 ft 343 kts 313°
2026-05-08 05:45 -19.81201 149.02992 3988 ft 327 kts 312°
2026-05-08 05:46 -19.80057 149.01001 3953 ft 309 kts 288°
2026-05-08 05:46 -19.79799 148.98823 3948 ft 291 kts 262°
2026-05-08 05:46 -19.80327 148.96833 3952 ft 269 kts 245°
2026-05-08 05:46 -19.81016 148.95127 3934 ft 253 kts 243°
2026-05-08 05:47 -19.81698 148.93523 3921 ft 226 kts 242°
2026-05-08 05:47 -19.82294 148.92098 3922 ft 203 kts 242°
2026-05-08 05:47 -19.82853 148.90744 3950 ft 200 kts 242°
2026-05-08 05:47 -19.83376 148.89460 3956 ft 199 kts 242°
2026-05-08 05:48 -19.83865 148.88279 3955 ft 200 kts 242°
2026-05-08 05:48 -19.84423 148.86911 3971 ft 205 kts 242°
2026-05-08 05:48 -19.84997 148.85509 3962 ft 209 kts 242°
2026-05-08 05:49 -19.85584 148.84089 3953 ft 209 kts 241°
2026-05-08 05:49 -19.86113 148.82784 3945 ft 208 kts 242°
2026-05-08 05:49 -19.86208 148.82552 3948 ft 209 kts 242°
2026-05-08 05:50 -19.86792 148.81128 3953 ft 209 kts 242°
2026-05-08 05:50 -19.87375 148.79724 3946 ft 206 kts 242°
2026-05-08 05:50 -19.87950 148.78338 3951 ft 204 kts 241°
2026-05-08 05:50 -19.88514 148.76957 3944 ft 204 kts 242°
2026-05-08 05:51 -19.89074 148.75579 3956 ft 203 kts 242°
2026-05-08 05:51 -19.89626 148.74222 3950 ft 201 kts 242°
2026-05-08 05:51 -19.90183 148.72852 3951 ft 201 kts 241°
2026-05-08 05:51 -19.90735 148.71494 3966 ft 201 kts 242°
2026-05-08 05:52 -19.91295 148.70122 3969 ft 202 kts 242°
2026-05-08 05:52 -19.91851 148.68748 3950 ft 203 kts 242°
2026-05-08 05:52 -19.92412 148.67367 3967 ft 204 kts 242°
2026-05-08 05:52 -19.92971 148.65982 3957 ft 203 kts 242°
2026-05-08 05:53 -19.93486 148.64716 3967 ft 203 kts 242°
2026-05-08 05:53 -19.93800 148.63940 3943 ft 203 kts 242°
2026-05-08 05:53 -19.94360 148.62577 3949 ft 198 kts 239°
2026-05-08 05:54 -19.95233 148.61509 3950 ft 189 kts 201°
2026-05-08 05:54 -19.96480 148.61235 3949 ft 184 kts 167°
2026-05-08 05:54 -19.97538 148.61851 3971 ft 170 kts 136°
2026-05-08 05:54 -19.98436 148.62701 3950 ft 173 kts 137°
2026-05-08 05:55 -19.99337 148.63538 3964 ft 175 kts 137°
2026-05-08 05:55 -20.00256 148.64395 3970 ft 175 kts 137°
2026-05-08 05:55 -20.01159 148.65235 3948 ft 168 kts 137°
2026-05-08 05:55 -20.02007 148.66024 3946 ft 157 kts 137°
2026-05-08 05:56 -20.02794 148.66758 3945 ft 145 kts 137°
2026-05-08 05:56 -20.03556 148.67470 3948 ft 145 kts 137°
2026-05-08 05:56 -20.04284 148.68148 3944 ft 134 kts 137°
2026-05-08 05:56 -20.04967 148.68786 3944 ft 131 kts 137°
2026-05-08 05:57 -20.05671 148.69441 3967 ft 137 kts 137°
2026-05-08 05:57 -20.06395 148.70118 3972 ft 141 kts 137°
2026-05-08 05:57 -20.07139 148.70811 3954 ft 141 kts 136°
2026-05-08 05:57 -20.07864 148.71487 3964 ft 138 kts 137°
2026-05-08 05:58 -20.08347 148.71937 3967 ft 141 kts 136°
2026-05-08 05:58 -20.09077 148.72619 3948 ft 139 kts 136°
2026-05-08 05:58 -20.10037 148.73516 3948 ft 137 kts 136°
2026-05-08 05:58 -20.10517 148.73962 3945 ft 135 kts 136°
2026-05-08 05:59 -20.11223 148.74621 3972 ft 136 kts 136°
2026-05-08 05:59 -20.11946 148.75294 3952 ft 138 kts 137°
2026-05-08 05:59 -20.12668 148.75968 3966 ft 138 kts 137°
2026-05-08 05:59 -20.13387 148.76639 3947 ft 137 kts 137°
2026-05-08 06:00 -20.14092 148.77296 3947 ft 133 kts 136°
2026-05-08 06:00 -20.14791 148.77948 3955 ft 134 kts 137°
2026-05-08 06:00 -20.15499 148.78610 3973 ft 136 kts 137°
2026-05-08 06:00 -20.16217 148.79280 3950 ft 138 kts 137°
2026-05-08 06:01 -20.16937 148.79951 3950 ft 137 kts 137°
2026-05-08 06:01 -20.17645 148.80611 3947 ft 133 kts 137°
2026-05-08 06:01 -20.18355 148.81243 3957 ft 134 kts 140°
2026-05-08 06:01 -20.19094 148.81834 3959 ft 134 kts 141°
2026-05-08 06:02 -20.19852 148.82440 3953 ft 139 kts 141°
2026-05-08 06:02 -20.20639 148.83068 3826 ft 142 kts 141°
2026-05-08 06:02 -20.21423 148.83693 3557 ft 140 kts 140°
2026-05-08 06:02 -20.22183 148.84298 3213 ft 132 kts 140°
2026-05-08 06:03 -20.22898 148.84870 2865 ft 126 kts 140°
2026-05-08 06:03 -20.23609 148.85439 2558 ft 129 kts 140°
2026-05-08 06:03 -20.24330 148.86016 2263 ft 129 kts 141°
2026-05-08 06:03 -20.25033 148.86578 2032 ft 120 kts 142°
2026-05-08 06:04 -20.25716 148.87124 2002 ft 125 kts 142°
2026-05-08 06:04 -20.26417 148.87687 1976 ft 127 kts 142°
2026-05-08 06:04 -20.27125 148.88253 1903 ft 127 kts 142°
2026-05-08 06:04 -20.27829 148.88816 1700 ft 127 kts 142°
2026-05-08 06:05 -20.28537 148.89382 1415 ft 127 kts 142°
2026-05-08 06:05 -20.29234 148.89941 1160 ft 127 kts 142°
2026-05-08 06:05 -20.29933 148.90502 946 ft 126 kts 139°
2026-05-08 06:05 -20.30644 148.91070 751 ft 124 kts 139°
2026-05-08 06:06 -20.31333 148.91620 713 ft 128 kts 140°
2026-05-08 06:06 -20.32055 148.92201 677 ft 130 kts 141°
2026-05-08 06:06 -20.32757 148.92767 671 ft 125 kts 141°
2026-05-08 06:06 -20.33475 148.93349 479 ft 131 kts 142°
2026-05-08 06:07 -20.34190 148.93884 298 ft 122 kts 140°
2026-05-08 06:07 -20.34870 148.94413 95 ft 123 kts 141°
2026-05-08 06:07 -20.35541 148.94990 30 ft 122 kts 140°
2026-05-08 06:07 -20.36059 148.95418 31 ft 53 kts 150°
2026-05-08 06:08 -20.36214 148.95513 28 ft 25 kts 140°
2026-05-08 06:08 -20.36348 148.95624 27 ft 19 kts 161°
2026-05-08 06:08 -20.36394 148.95654 27 ft 4 kts 74°
2026-05-08 06:08 -20.36367 148.95654 28 ft 5 kts 334°
2026-05-08 06:09 -20.36321 148.95624 27 ft 12 kts 327°
2026-05-08 06:09 -20.36227 148.95551 29 ft 21 kts 322°
2026-05-08 06:09 -20.36089 148.95437 28 ft 29 kts 322°
2026-05-08 06:09 -20.35908 148.95289 26 ft 36 kts 324°
2026-05-08 06:10 -20.35686 148.95112 28 ft 42 kts 322°
2026-05-08 06:10 -20.35468 148.94940 27 ft 25 kts 329°
2026-05-08 06:10 -20.35381 148.94974 29 ft 12 kts 52°
2026-05-08 06:10 -20.35314 148.94999 29 ft 7 kts 336°
2026-05-08 06:11 -20.35249 148.94982 28 ft 8 kts 327°
2026-05-08 06:11 -20.35243 148.94978 28 ft 0 kts 326°